Ketchikan, AK

10:12 PM AKDT on September 22, 2018 (GMT -0800)
Ketchikan International

Weather History for PAKT - August, 2018

Change the Weather History Date:

Monday, August 20, 2018

  Actual Average Record
Temperature  
Mean Temperature 66 °F -  
Max Temperature 73 °F 64 °F 81 °F (1977)
Min Temperature 60 °F 51 °F 41 °F (1964)
Cooling Degree Days 2    
Growing Degree Days 16 (Base 50)    
Moisture  
Dew Point 51 °F    
Average Humidity 61    
Maximum Humidity 75    
Minimum Humidity 48    
Precipitation  
Precipitation 0.00 in - - ()
Sea Level Pressure  
Sea Level Pressure 30.24 in    
Wind  
Wind Speed 12 mph (NW)    
Max Wind Speed 16 mph    
Max Gust Speed -    
Visibility 10 miles    
Events      
Averages and records for this station are not official NWS values.
T = Trace of Precipitation, MM = Missing Value Source: NWS Daily Summary

Daily Weather History Graph

Daily Weather History Graph

Search for Another Location

Airport or City:

Astronomy

Aug. 20, 2018 Rise Set
Actual Time 5:30 AM AKDT 8:08 PM AKDT
Civil Twilight 4:48 AM AKDT 8:49 PM AKDT
Nautical Twilight 3:55 AM AKDT 9:42 PM AKDT
Astronomical Twilight 2:46 AM AKDT 10:50 PM AKDT
Moon 4:53 PM AKDT (8/20) 12:07 AM AKDT (8/20)
Length of Visible Light 16h 01m
Length of Day
14h 38m
Waxing Gibbous, 74% of the Moon is Illuminated
Aug 20
Waxing Gibbous
Aug 26
Full
Sep 2
Last Quarter
Sep 9
New
Sep 16
First Quarter

Hourly Weather History & Observations

Time (AKDT) Temp. Dew Point Humidity Pressure Visibility Wind Dir Wind Speed Gust Speed Precip Events Conditions
12:53 AM 64.0 °F 48.9 °F 58% 30.29 in 10.0 mi NNW 10.4 mph - N/A   Clear
1:53 AM 63.0 °F 48.9 °F 60% 30.29 in 10.0 mi NW 11.5 mph - N/A   Clear
2:53 AM 62.1 °F 48.9 °F 62% 30.30 in 10.0 mi NNW 11.5 mph - N/A   Clear
3:53 AM 61.0 °F 48.9 °F 64% 30.30 in 10.0 mi NNW 15.0 mph - N/A   Clear
4:53 AM 61.0 °F 50.0 °F 67% 30.30 in 10.0 mi North 10.4 mph - N/A   Clear
5:53 AM 61.0 °F 48.9 °F 64% 30.29 in 10.0 mi NNW 13.8 mph - N/A   Clear
6:12 AM 61.0 °F 48.9 °F 64% 30.29 in 10.0 mi NNW 11.5 mph - N/A   Clear
6:53 AM 60.8 °F 51.8 °F 72% 30.29 in 10.0 mi North 15.0 mph - N/A   Clear
7:53 AM 64.4 °F 50.0 °F 59% 30.28 in 10.0 mi NNW 16.1 mph - N/A   Clear
8:53 AM 64.4 °F 51.8 °F 64% 30.28 in 10.0 mi NNW 12.7 mph - N/A   Clear
9:53 AM 68.0 °F 50.0 °F 52% 30.28 in 10.0 mi NNW 13.8 mph - N/A   Clear
10:53 AM 68.0 °F 51.8 °F 56% 30.27 in 10.0 mi NNW 11.5 mph - N/A   Clear
11:53 AM 70.0 °F 52.0 °F 53% 30.26 in 10.0 mi NNW 15.0 mph - N/A   Clear
12:53 PM 69.8 °F 53.6 °F 56% 30.25 in 10.0 mi NW 9.2 mph - N/A   Clear
1:53 PM 71.6 °F 51.8 °F 50% 30.23 in 10.0 mi NW 11.5 mph - N/A   Clear
2:53 PM 72.0 °F 53.1 °F 51% 30.22 in 10.0 mi NW 12.7 mph - N/A   Clear
3:53 PM 73.0 °F 52.0 °F 48% 30.21 in 10.0 mi NW 10.4 mph - N/A   Clear
4:53 PM 71.1 °F 52.0 °F 51% 30.19 in 10.0 mi NW 10.4 mph - N/A   Clear
5:53 PM 70.0 °F 52.0 °F 53% 30.19 in 10.0 mi NW 10.4 mph - N/A   Clear
6:53 PM 68.0 °F 53.1 °F 59% 30.17 in 10.0 mi NW 8.1 mph - N/A   Clear
7:53 PM 64.9 °F 54.0 °F 68% 30.16 in 10.0 mi WNW 8.1 mph - N/A   Clear
8:53 PM 64.0 °F 54.0 °F 70% 30.16 in 10.0 mi NW 8.1 mph - N/A   Clear
9:53 PM 63.0 °F 54.0 °F 72% 30.16 in 10.0 mi NW 8.1 mph - N/A   Clear
10:53 PM 62.1 °F 54.0 °F 75% 30.15 in 10.0 mi NW 10.4 mph - N/A   Clear
11:53 PM 64.0 °F 52.0 °F 65% 30.14 in 10.0 mi WNW 9.2 mph - N/A   Clear